Andalusia, AL

2:53 PM CDT on May 24, 2017 (GMT -0500)
Andalusia

Weather History for K79J - September, 2012

Change the Weather History Date:

Sunday, September 16, 2012

  Actual Average (KCEW) Record (KCEW)
Temperature  
Mean Temperature 80 °F -  
Max Temperature 90 °F 90 °F 97 °F (1990)
Min Temperature 70 °F 69 °F 55 °F (1999)
Cooling Degree Days 15    
Growing Degree Days 30 (Base 50)    
Moisture  
Dew Point 68 °F    
Average Humidity 74    
Maximum Humidity 87    
Minimum Humidity 45    
Precipitation  
Precipitation 0.11 in - - ()
Sea Level Pressure  
Sea Level Pressure 30.02 in    
Wind  
Wind Speed 2 mph (SSE)    
Max Wind Speed 10 mph    
Max Gust Speed 20 mph    
Visibility 8 miles    
Events Rain    
Averages and records for this station are not official NWS values.
T = Trace of Precipitation, MM = Missing Value Source: NWS Daily Summary

Daily Weather History Graph

Daily Weather History Graph

Search for Another Location

Airport or City:

Trip Planner

Search our weather history database for the weather conditions in past years. The results will help you decide how hot, cold, wet, or windy it might be!

Date:

Astronomy

Sep. 16, 2012 Rise Set
Actual Time 6:30 AM CDT 6:49 PM CDT
Civil Twilight 6:06 AM CDT 7:13 PM CDT
Nautical Twilight 5:37 AM CDT 7:41 PM CDT
Astronomical Twilight 5:09 AM CDT 8:10 PM CDT
Moon 7:02 AM CDT (9/16) 7:02 PM CDT (9/16)
Length of Visible Light 13h 07m
Length of Day
12h 18m
New Moon, 0% of the Moon is Illuminated
Sep 16
New Moon
Sep 22
First Quarter
Sep 29
Full
Oct 8
Last Quarter
Oct 15
New

Hourly Weather History & Observations

Time (CDT) Temp. Heat Index Dew Point Humidity Pressure Visibility Wind Dir Wind Speed Gust Speed Precip Events Conditions
12:56 AM 73.0 °F - 69.1 °F 87% 30.06 in 10.0 mi Calm Calm - N/A   Clear
1:56 AM 73.9 °F - 68.0 °F 82% 30.04 in 10.0 mi Calm Calm - N/A   Mostly Cloudy
2:56 AM 73.0 °F - 66.9 °F 81% 30.04 in 10.0 mi Calm Calm - N/A   Clear
3:56 AM 71.1 °F - 66.9 °F 87% 30.02 in 7.0 mi Calm Calm - N/A   Clear
4:56 AM 70.0 °F - 66.0 °F 87% 30.03 in 8.0 mi Calm Calm - N/A   Clear
5:56 AM 70.0 °F - 66.0 °F 87% 30.04 in 9.0 mi Calm Calm - N/A   Clear
6:56 AM 71.1 °F - 66.0 °F 84% 30.05 in 10.0 mi Calm Calm - N/A   Clear
7:56 AM 75.0 °F - 68.0 °F 79% 30.06 in 9.0 mi East 3.5 mph - N/A   Clear
8:56 AM 81.0 °F 84.1 °F 69.1 °F 67% 30.07 in 10.0 mi ESE 4.6 mph - N/A   Clear
9:56 AM 84.9 °F 88.8 °F 69.1 °F 59% 30.06 in 10.0 mi SSE 4.6 mph - N/A   Clear
10:56 AM 87.1 °F 91.3 °F 69.1 °F 55% 30.06 in 10.0 mi Variable 4.6 mph - N/A   Clear
11:56 AM 87.1 °F 90.6 °F 68.0 °F 53% 30.04 in 10.0 mi Calm Calm - N/A   Mostly Cloudy
12:56 PM 89.1 °F 92.1 °F 66.9 °F 48% 30.02 in 10.0 mi South 6.9 mph - N/A   Partly Cloudy
1:56 PM 90.0 °F 92.8 °F 66.9 °F 46% 29.99 in 10.0 mi SSE 5.8 mph - N/A   Partly Cloudy
2:56 PM 90.0 °F 92.4 °F 66.0 °F 45% 29.97 in 10.0 mi East 8.1 mph - N/A   Partly Cloudy
3:56 PM 82.9 °F 85.8 °F 68.0 °F 60% 29.96 in 10.0 mi WSW 9.2 mph 19.6 mph N/A   Scattered Clouds
4:35 PM 77.0 °F - 69.8 °F 78% 29.98 in 1.8 mi WSW 10.4 mph 16.1 mph 0.04 in Rain Heavy Rain
4:45 PM 77.0 °F - 69.8 °F 78% 29.98 in 3.0 mi West 4.6 mph - 0.06 in Rain Light Rain
4:56 PM 77.0 °F - 70.0 °F 79% 29.97 in 3.0 mi WSW 5.8 mph - 0.08 in Rain Rain
5:56 PM 75.0 °F - 69.1 °F 82% 29.99 in 10.0 mi SSE 9.2 mph - 0.02 in   Overcast
6:56 PM 75.0 °F - 69.1 °F 82% 29.97 in 10.0 mi Calm Calm - 0.00 in Rain Light Rain
7:56 PM 75.0 °F - 69.1 °F 82% 29.99 in 10.0 mi Calm Calm - 0.01 in   Scattered Clouds
8:56 PM 73.9 °F - 70.0 °F 87% 30.00 in 8.0 mi Calm Calm - N/A   Clear
9:56 PM 73.0 °F - 69.1 °F 87% 30.01 in 7.0 mi Calm Calm - N/A   Clear
10:56 PM 73.0 °F - 69.1 °F 87% 30.01 in 5.0 mi Calm Calm - N/A   Clear
11:56 PM 73.0 °F - 69.1 °F 87% 30.00 in 6.0 mi SE 3.5 mph - N/A   Clear